Home > Weather > Khanty-Mansiysk > Past weeks

Flag for Russia Past Weather in Khanty-Mansiysk, Russia — Yesterday and Last 2 Weeks

Now
79 °F

Sunny.


Feels Like: 80 °F
Forecast: 56 / 81 °F
Wind: 6 mph from West

Location: Hanty-Mansijsk

Current Time: Aug 25, 2016 at 4:42:35 PM

Latest Report: Aug 25, 2016 at 4:00 PM


Visibility: 10 mi

Pressure: 29.83 "Hg

Humidity: 58%

Dew Point: 63 °F

Location of Khanty-MansiyskLocation

Past Weather in Khanty-Mansiysk — Graph

°F

Khanty-Mansiysk Temperature Yesterday

Maximum temperature yesterday: 81 °F (at 2:00 PM)
Minimum temperature yesterday: 54 °F (at 4:30 AM)
Average temperature yesterday: 67 °F

High & Low Weather Summary for the Past Weeks

 TemperatureHumidityPressure
High86 °F (Aug 13, 1:00 PM)100% (Aug 12, 12:30 AM)30.45 "Hg (Aug 12, 12:30 AM)
Low46 °F (Aug 21, 4:30 AM)39% (Aug 22, 3:30 PM)29.83 "Hg (Aug 25, 12:00 PM)
Average69 °F75%30.18 "Hg
* Reported Aug 10 3:00 PM — Aug 25 3:00 PM, Khanty-Mansiysk, Weather by CustomWeather, © 2016

Note: Actual official high and low records may vary slightly from our data, if they occured in-between our weather recording intervals... More about our weather records

Advertising

Khanty-Mansiysk Weather History for the Previous 24 Hours

Scroll right to see more
 ConditionsComfort  
Time TempWeatherWind HumidityBarometerVisibility
3:00 PM
Thu, Aug 25
79 °FScattered clouds.15 mph54%29.83 "HgN/A
2:30 PM81 °FScattered clouds.13 mph51%29.83 "HgN/A
2:00 PM79 °FSunny.10 mph54%29.83 "Hg10 mi
1:30 PM81 °FSunny.10 mph51%29.83 "Hg10 mi
1:00 PM81 °FPassing clouds.8 mph51%29.83 "HgN/A
12:30 PM77 °FSunny.10 mph61%29.83 "Hg10 mi
12:00 PM77 °FSunny.13 mph61%29.83 "Hg10 mi
11:30 AM77 °FSunny.13 mph61%29.86 "Hg10 mi
11:00 AM75 °FSunny.10 mph61%29.86 "Hg10 mi
10:30 AM75 °FSunny.13 mph61%29.86 "Hg10 mi
10:00 AM73 °FSunny.13 mph69%29.86 "Hg10 mi
9:30 AM73 °FSunny.10 mph69%29.86 "Hg10 mi
9:00 AM73 °FSunny.10 mph69%29.86 "Hg10 mi
8:30 AM72 °FSunny.10 mph69%29.86 "Hg10 mi
8:00 AM70 °FSunny.8 mph73%29.86 "Hg10 mi
7:30 AM68 °FSunny.8 mph78%29.86 "Hg10 mi
7:00 AM68 °FSunny.6 mph78%29.86 "Hg10 mi
6:30 AM68 °FSunny.8 mph78%29.86 "Hg10 mi
6:00 AM66 °FSunny.6 mph83%29.86 "Hg10 mi
5:30 AM66 °FSunny.3 mph83%29.86 "Hg10 mi
5:00 AM66 °FSunny.6 mph83%29.86 "Hg10 mi
4:30 AM68 °FClear.3 mph78%29.86 "Hg10 mi
4:00 AM68 °FClear.6 mph78%29.86 "Hg10 mi
3:30 AM68 °FClear.6 mph83%29.86 "Hg10 mi
3:00 AM68 °FClear.8 mph78%29.89 "Hg10 mi
2:30 AM68 °FClear.8 mph83%29.89 "Hg10 mi
2:00 AM68 °FClear.6 mph78%29.89 "Hg10 mi
1:30 AM66 °FClear.8 mph83%29.89 "Hg10 mi
1:00 AM66 °FClear.6 mph83%29.89 "Hg10 mi
12:30 AM66 °FClear.8 mph83%29.92 "Hg10 mi
12:00 AM66 °FClear.6 mph78%29.92 "Hg10 mi
11:30 PM
Wed, Aug 24
66 °FClear.6 mph78%29.95 "Hg10 mi
11:00 PM66 °FClear.6 mph78%29.95 "Hg10 mi
10:30 PM66 °FClear.6 mph78%29.98 "Hg10 mi
10:00 PM66 °FClear.6 mph78%29.98 "Hg10 mi
9:30 PM66 °FClear.6 mph78%29.98 "Hg10 mi
9:00 PM68 °FClear.3 mph73%29.98 "Hg10 mi
8:30 PM68 °FClear.3 mph73%29.98 "Hg10 mi
8:00 PM70 °FClear.3 mph69%30.01 "Hg10 mi
7:30 PM72 °FSunny.3 mph69%29.98 "Hg10 mi
7:00 PM73 °FSunny.6 mph65%30.01 "Hg10 mi
6:30 PM75 °FPassing clouds.6 mph61%30.01 "HgN/A
6:00 PM77 °FPassing clouds.6 mph54%30.01 "HgN/A
5:30 PM79 °FPassing clouds.6 mph51%30.04 "HgN/A
5:00 PM81 °FPassing clouds.10 mph42%30.04 "HgN/A
4:30 PM81 °FPassing clouds.8 mph42%30.04 "HgN/A
4:00 PM81 °FPassing clouds.10 mph42%30.07 "HgN/A
Weather by CustomWeather, © 2016

See weather overviewHow to use our weather pages